Time,TemperatureF,DewpointF,PressureIn,WindDirection,WindDirectionDegrees,WindSpeedMPH,WindSpeedGustMPH,Humidity,HourlyPrecipIn,Conditions,Clouds,dailyrainin,SoftwareType,DateUTC
2013-06-18 00:00:00,65.0,56.9,30.06,ESE,112,0.0,0.0,75,0.00,,,-99.99,Weather View 32 v60,2013-06-18 05:00:00,
2013-06-18 00:15:00,64.0,56.3,30.06,NNW,337,0.0,0.0,76,0.00,,,-99.99,Weather View 32 v60,2013-06-18 05:15:00,
2013-06-18 00:30:00,65.0,56.5,30.06,ESE,112,0.0,0.0,74,0.00,,,-99.99,Weather View 32 v60,2013-06-18 05:30:00,
2013-06-18 00:45:00,65.0,56.1,30.06,ESE,112,0.0,0.0,73,0.00,,,-99.99,Weather View 32 v60,2013-06-18 05:45:00,
2013-06-18 01:00:00,65.0,56.5,30.06,ESE,112,0.0,0.0,74,0.00,,,-99.99,Weather View 32 v60,2013-06-18 06:00:00,
2013-06-18 01:15:00,64.0,57.0,30.06,ESE,112,0.0,0.0,78,0.00,,,-99.99,Weather View 32 v60,2013-06-18 06:15:00,
2013-06-18 01:30:00,64.0,58.0,30.06,ESE,112,0.0,0.0,81,0.00,,,-99.99,Weather View 32 v60,2013-06-18 06:30:00,
2013-06-18 01:45:00,63.0,56.7,30.06,ESE,112,0.0,0.0,80,0.00,,,-99.99,Weather View 32 v60,2013-06-18 06:45:00,
2013-06-18 02:00:00,62.0,56.1,30.06,ESE,112,0.0,0.0,81,0.00,,,-99.99,Weather View 32 v60,2013-06-18 07:00:00,
2013-06-18 02:15:00,61.0,55.5,30.06,ESE,112,0.0,0.0,82,0.00,,,-99.99,Weather View 32 v60,2013-06-18 07:15:00,
2013-06-18 02:30:00,61.0,55.5,30.07,ESE,112,0.0,0.0,82,0.00,,,-99.99,Weather View 32 v60,2013-06-18 07:30:00,
2013-06-18 02:45:00,60.0,54.5,30.07,ESE,112,0.0,0.0,82,0.00,,,-99.99,Weather View 32 v60,2013-06-18 07:45:00,
2013-06-18 03:00:00,60.0,54.1,30.07,South,180,0.0,0.0,81,0.00,,,-99.99,Weather View 32 v60,2013-06-18 08:00:00,
2013-06-18 03:15:00,60.0,54.5,30.07,South,180,0.0,0.0,82,0.00,,,-99.99,Weather View 32 v60,2013-06-18 08:15:00,
2013-06-18 03:30:00,60.0,53.8,30.07,South,180,0.0,0.0,80,0.00,,,-99.99,Weather View 32 v60,2013-06-18 08:30:00,
2013-06-18 03:45:00,59.0,52.8,30.07,South,180,0.0,0.0,80,0.00,,,-99.99,Weather View 32 v60,2013-06-18 08:45:00,
2013-06-18 04:00:00,59.0,52.5,30.08,South,180,0.0,0.0,79,0.00,,,-99.99,Weather View 32 v60,2013-06-18 09:00:00,
2013-06-18 04:15:00,59.0,52.5,30.08,South,180,0.0,0.0,79,0.00,,,-99.99,Weather View 32 v60,2013-06-18 09:15:00,
2013-06-18 04:30:00,59.0,52.1,30.08,South,180,0.0,0.0,78,0.00,,,-99.99,Weather View 32 v60,2013-06-18 09:30:00,
2013-06-18 04:45:00,58.0,51.2,30.08,South,180,0.0,0.0,78,0.00,,,-99.99,Weather View 32 v60,2013-06-18 09:45:00,
2013-06-18 05:00:00,58.0,50.1,30.09,South,180,0.0,0.0,75,0.00,,,-99.99,Weather View 32 v60,2013-06-18 10:00:00,
2013-06-18 05:15:00,58.0,49.7,30.08,South,180,0.0,0.0,74,0.00,,,-99.99,Weather View 32 v60,2013-06-18 10:15:00,
2013-06-18 05:30:00,57.0,49.5,30.08,South,180,0.0,0.0,76,0.00,,,-99.99,Weather View 32 v60,2013-06-18 10:30:00,
2013-06-18 05:45:00,58.0,49.4,30.09,South,180,0.0,0.0,73,0.00,,,-99.99,Weather View 32 v60,2013-06-18 10:45:00,
2013-06-18 06:00:00,57.0,46.9,30.09,South,180,0.0,0.0,69,0.00,,,-99.99,Weather View 32 v60,2013-06-18 11:00:00,
2013-06-18 06:15:00,59.0,50.3,30.09,South,180,0.0,0.0,73,0.00,,,-99.99,Weather View 32 v60,2013-06-18 11:15:00,
2013-06-18 06:30:00,60.0,51.7,30.09,South,180,0.0,0.0,74,0.00,,,-99.99,Weather View 32 v60,2013-06-18 11:30:00,
2013-06-18 06:35:00,60.0,51.7,30.09,South,180,0.0,0.0,74,0.00,,,-99.99,Weather View 32 v60,2013-06-18 11:35:00,
2013-06-18 06:45:00,60.0,51.3,30.10,ENE,67,0.0,0.0,73,0.00,,,-99.99,Weather View 32 v60,2013-06-18 11:45:00,
2013-06-18 07:00:00,62.0,53.6,30.10,NNW,337,0.0,0.0,74,0.00,,,-99.99,Weather View 32 v60,2013-06-18 12:00:00,
2013-06-18 07:15:00,63.0,57.4,30.08,ENE,67,0.0,0.0,82,0.00,,,-99.99,Weather View 32 v60,2013-06-18 12:15:00,
2013-06-18 07:30:00,67.0,60.6,30.08,ENE,67,0.0,0.0,80,0.00,,,-99.99,Weather View 32 v60,2013-06-18 12:30:00,
2013-06-18 07:35:00,67.0,60.6,30.08,ENE,67,0.0,0.0,80,0.00,,,-99.99,Weather View 32 v60,2013-06-18 12:35:00,
2013-06-18 07:45:00,69.0,61.5,30.06,ESE,112,0.0,0.0,77,0.00,,,-99.99,Weather View 32 v60,2013-06-18 12:45:00,
2013-06-18 08:00:00,71.0,60.3,30.06,ESE,112,0.0,3.0,69,0.00,,,-99.99,Weather View 32 v60,2013-06-18 13:00:00,
2013-06-18 08:15:00,73.0,61.8,30.05,ENE,67,0.0,4.0,68,0.00,,,-99.99,Weather View 32 v60,2013-06-18 13:15:00,
2013-06-18 08:30:00,73.0,60.5,30.05,ENE,67,0.0,4.0,65,0.00,,,-99.99,Weather View 32 v60,2013-06-18 13:30:00,
2013-06-18 08:36:00,73.0,60.5,30.05,ENE,67,0.0,4.0,65,0.00,,,-99.99,Weather View 32 v60,2013-06-18 13:36:00,
2013-06-18 08:45:00,75.0,60.1,30.04,East,90,0.0,6.0,60,0.00,,,-99.99,Weather View 32 v60,2013-06-18 13:45:00,
2013-06-18 09:00:00,76.0,59.6,30.04,SE,135,0.0,6.0,57,0.00,,,-99.99,Weather View 32 v60,2013-06-18 14:00:00,
2013-06-18 09:15:00,79.0,59.8,30.04,ESE,112,0.0,6.0,52,0.00,,,-99.99,Weather View 32 v60,2013-06-18 14:15:00,
2013-06-18 09:30:00,80.0,59.1,30.03,ENE,67,0.0,6.0,49,0.00,,,-99.99,Weather View 32 v60,2013-06-18 14:30:00,
2013-06-18 09:36:00,80.0,59.1,30.03,ENE,67,0.0,6.0,49,0.00,,,-99.99,Weather View 32 v60,2013-06-18 14:36:00,
2013-06-18 09:45:00,81.0,60.0,30.02,North,360,0.0,4.0,49,0.00,,,-99.99,Weather View 32 v60,2013-06-18 14:45:00,
2013-06-18 10:00:00,80.0,57.9,30.02,ENE,67,0.0,4.0,47,0.00,,,-99.99,Weather View 32 v60,2013-06-18 15:00:00,
2013-06-18 10:15:00,80.0,59.1,30.02,SE,135,3.0,5.0,49,0.00,,,-99.99,Weather View 32 v60,2013-06-18 15:15:00,
2013-06-18 10:30:00,80.0,57.9,30.02,WNW,292,0.0,5.0,47,0.00,,,-99.99,Weather View 32 v60,2013-06-18 15:30:00,
2013-06-18 10:37:00,80.0,57.9,30.02,WNW,292,0.0,5.0,47,0.00,,,-99.99,Weather View 32 v60,2013-06-18 15:37:00,
2013-06-18 10:45:00,82.0,59.1,30.01,ENE,67,0.0,5.0,46,0.00,,,-99.99,Weather View 32 v60,2013-06-18 15:45:00,
2013-06-18 11:00:00,83.0,60.0,30.01,ESE,112,0.0,5.0,46,0.00,,,-99.99,Weather View 32 v60,2013-06-18 16:00:00,
2013-06-18 11:15:00,84.0,58.4,30.00,WSW,247,0.0,5.0,42,0.00,,,-99.99,Weather View 32 v60,2013-06-18 16:15:00,
2013-06-18 11:30:00,82.0,59.1,30.01,West,270,0.0,7.0,46,0.00,,,-99.99,Weather View 32 v60,2013-06-18 16:30:00,
2013-06-18 11:38:00,82.0,59.1,30.01,West,270,0.0,7.0,46,0.00,,,-99.99,Weather View 32 v60,2013-06-18 16:38:00,
2013-06-18 11:45:00,83.0,54.7,30.01,WNW,292,0.0,7.0,38,0.00,,,-99.99,Weather View 32 v60,2013-06-18 16:45:00,
2013-06-18 12:30:00,84.0,58.4,30.00,NNW,337,0.0,6.0,42,0.00,,,-99.99,Weather View 32 v60,2013-06-18 17:30:00,
2013-06-18 12:45:00,83.0,55.4,29.99,NNW,337,0.0,6.0,39,0.00,,,-99.99,Weather View 32 v60,2013-06-18 17:45:00,
2013-06-18 13:00:00,84.0,57.0,29.99,SW,225,0.0,0.0,40,0.00,,,-99.99,Weather View 32 v60,2013-06-18 18:00:00,
2013-06-18 13:15:00,84.0,55.6,29.98,NW,315,0.0,0.0,38,0.00,,,-99.99,Weather View 32 v60,2013-06-18 18:15:00,
2013-06-18 13:30:00,85.0,57.9,29.98,SE,135,0.0,0.0,40,0.00,,,-99.99,Weather View 32 v60,2013-06-18 18:30:00,
2013-06-18 13:45:00,85.0,57.9,29.97,West,270,0.0,0.0,40,0.00,,,-99.99,Weather View 32 v60,2013-06-18 18:45:00,
2013-06-18 14:00:00,86.0,58.1,29.97,ENE,67,0.0,0.0,39,0.00,,,-99.99,Weather View 32 v60,2013-06-18 19:00:00,
2013-06-18 14:15:00,84.0,52.5,29.96,NNE,22,0.0,0.0,34,0.00,,,-99.99,Weather View 32 v60,2013-06-18 19:15:00,
2013-06-18 14:30:00,84.0,55.6,29.97,NNW,337,0.0,7.0,38,0.00,,,-99.99,Weather View 32 v60,2013-06-18 19:30:00,
2013-06-18 14:45:00,84.0,54.8,29.97,NNW,337,1.0,10.0,37,0.00,,,-99.99,Weather View 32 v60,2013-06-18 19:45:00,
2013-06-18 15:00:00,85.0,55.7,29.96,North,360,0.0,10.0,37,0.00,,,-99.99,Weather View 32 v60,2013-06-18 20:00:00,
2013-06-18 15:15:00,88.0,55.2,29.95,WSW,247,0.0,10.0,33,0.00,,,-99.99,Weather View 32 v60,2013-06-18 20:15:00,
2013-06-18 15:30:00,88.0,55.2,29.95,East,90,0.0,10.0,33,0.00,,,-99.99,Weather View 32 v60,2013-06-18 20:30:00,
2013-06-18 15:45:00,87.0,55.1,29.95,West,270,0.0,8.0,34,0.00,,,-99.99,Weather View 32 v60,2013-06-18 20:45:00,
2013-06-18 16:00:00,87.0,55.1,29.96,NNW,337,0.0,8.0,34,0.00,,,-99.99,Weather View 32 v60,2013-06-18 21:00:00,
2013-06-18 16:15:00,87.0,55.9,29.95,NW,315,0.0,9.0,35,0.00,,,-99.99,Weather View 32 v60,2013-06-18 21:15:00,
2013-06-18 16:30:00,87.0,54.3,29.94,NW,315,8.0,9.0,33,0.00,,,-99.99,Weather View 32 v60,2013-06-18 21:30:00,
2013-06-18 16:45:00,89.0,55.2,29.93,ENE,67,0.0,9.0,32,0.00,,,-99.99,Weather View 32 v60,2013-06-18 21:45:00,
2013-06-18 17:00:00,86.0,53.4,29.94,NW,315,0.0,9.0,33,0.00,,,-99.99,Weather View 32 v60,2013-06-18 22:00:00,
2013-06-18 17:15:00,86.0,53.4,29.94,NNW,337,0.0,9.0,33,0.00,,,-99.99,Weather View 32 v60,2013-06-18 22:15:00,
2013-06-18 17:30:00,85.0,53.4,29.94,WSW,247,0.0,9.0,34,0.00,,,-99.99,Weather View 32 v60,2013-06-18 22:30:00,
2013-06-18 17:45:00,85.0,54.2,29.94,NE,45,0.0,9.0,35,0.00,,,-99.99,Weather View 32 v60,2013-06-18 22:45:00,
2013-06-18 18:00:00,85.0,53.4,29.93,ENE,67,0.0,9.0,34,0.00,,,-99.99,Weather View 32 v60,2013-06-18 23:00:00,
2013-06-18 18:15:00,86.0,55.1,29.93,North,360,2.0,7.0,35,0.00,,,-99.99,Weather View 32 v60,2013-06-18 23:15:00,
2013-06-18 18:20:00,86.0,55.1,29.93,North,360,2.0,7.0,35,0.00,,,-99.99,Weather View 32 v60,2013-06-18 23:20:00,
2013-06-18 18:30:00,84.0,53.3,29.93,NNW,337,2.0,6.0,35,0.00,,,-99.99,Weather View 32 v60,2013-06-18 23:30:00,
2013-06-18 18:45:00,82.0,53.1,29.93,NNW,337,0.0,7.0,37,0.00,,,-99.99,Weather View 32 v60,2013-06-18 23:45:00,
2013-06-18 19:00:00,82.0,55.2,29.94,NNE,22,0.0,7.0,40,0.00,,,-99.99,Weather View 32 v60,2013-06-19 00:00:00,
2013-06-18 19:15:00,82.0,53.8,29.93,ENE,67,0.0,7.0,38,0.00,,,-99.99,Weather View 32 v60,2013-06-19 00:15:00,
2013-06-18 19:20:00,82.0,53.8,29.93,ENE,67,0.0,7.0,38,0.00,,,-99.99,Weather View 32 v60,2013-06-19 00:20:00,
2013-06-18 19:30:00,82.0,53.1,29.93,ENE,67,0.0,7.0,37,0.00,,,-99.99,Weather View 32 v60,2013-06-19 00:30:00,
2013-06-18 19:45:00,81.0,52.9,29.93,ENE,67,0.0,6.0,38,0.00,,,-99.99,Weather View 32 v60,2013-06-19 00:45:00,
2013-06-18 20:00:00,82.0,56.6,29.93,North,360,0.0,4.0,42,0.00,,,-99.99,Weather View 32 v60,2013-06-19 01:00:00,
2013-06-18 20:15:00,82.0,57.2,29.93,North,360,0.0,3.0,43,0.00,,,-99.99,Weather View 32 v60,2013-06-19 01:15:00,
2013-06-18 20:21:00,82.0,57.2,29.93,North,360,0.0,3.0,43,0.00,,,-99.99,Weather View 32 v60,2013-06-19 01:21:00,
2013-06-18 20:30:00,82.0,57.9,29.93,North,360,0.0,3.0,44,0.00,,,-99.99,Weather View 32 v60,2013-06-19 01:30:00,
2013-06-18 20:45:00,80.0,59.1,29.93,North,360,0.0,3.0,49,0.00,,,-99.99,Weather View 32 v60,2013-06-19 01:45:00,
2013-06-18 21:00:00,77.0,58.5,29.95,North,360,0.0,0.0,53,0.00,,,-99.99,Weather View 32 v60,2013-06-19 02:00:00,
2013-06-18 21:15:00,73.0,57.8,29.97,North,360,0.0,0.0,59,0.00,,,-99.99,Weather View 32 v60,2013-06-19 02:15:00,
2013-06-18 21:21:00,73.0,57.8,29.97,North,360,0.0,0.0,59,0.00,,,-99.99,Weather View 32 v60,2013-06-19 02:21:00,
2013-06-18 21:30:00,71.0,57.3,29.98,North,360,0.0,0.0,62,0.00,,,-99.99,Weather View 32 v60,2013-06-19 02:30:00,
2013-06-18 21:45:00,69.0,60.7,30.00,North,360,0.0,0.0,75,0.00,,,-99.99,Weather View 32 v60,2013-06-19 02:45:00,
2013-06-18 22:00:00,67.0,59.5,30.01,North,360,0.0,0.0,77,0.00,,,-99.99,Weather View 32 v60,2013-06-19 03:00:00,
2013-06-18 22:15:00,65.0,59.0,30.02,East,90,0.0,3.0,81,0.00,,,-99.99,Weather View 32 v60,2013-06-19 03:15:00,
2013-06-18 22:22:00,65.0,59.0,30.02,East,90,0.0,3.0,81,0.00,,,-99.99,Weather View 32 v60,2013-06-19 03:22:00,
2013-06-18 22:30:00,65.0,59.0,30.03,East,90,0.0,3.0,81,0.00,,,-99.99,Weather View 32 v60,2013-06-19 03:30:00,
2013-06-18 22:45:00,64.0,58.4,30.03,East,90,0.0,3.0,82,0.00,,,-99.99,Weather View 32 v60,2013-06-19 03:45:00,
2013-06-18 23:00:00,63.0,57.1,30.03,East,90,0.0,3.0,81,0.00,,,-99.99,Weather View 32 v60,2013-06-19 04:00:00,
2013-06-18 23:15:00,63.0,57.1,30.04,East,90,0.0,0.0,81,0.00,,,-99.99,Weather View 32 v60,2013-06-19 04:15:00,
2013-06-18 23:23:00,63.0,57.1,30.04,East,90,0.0,0.0,81,0.00,,,-99.99,Weather View 32 v60,2013-06-19 04:23:00,
2013-06-18 23:30:00,63.0,57.4,30.04,East,90,0.0,3.0,82,0.00,,,-99.99,Weather View 32 v60,2013-06-19 04:30:00,
2013-06-18 23:45:00,62.0,56.4,30.04,East,90,0.0,3.0,82,0.00,,,-99.99,Weather View 32 v60,2013-06-19 04:45:00,